Location: Kielce
(50.8833°N, 20.6167°E)
Time: 20:48:14
(UTC+02:00)

SR - Pass Details

Date: 20 April 2021
Orbit: 573 x 882 km, 66.7° (Epoch: 08 May)

Event Time Altitude Azimuth Distance (km) Brightness Sun altitude
Rises 12:02:25 0° 294° (WNW) 3,463 ? 50.2°
Reaches altitude 10° 12:05:50 10° 314° (NW) 2,544 ? 50.3°
Maximum altitude 12:09:40 17° 355° (N) 2,072 ? 50.4°
Drops below altitude 10° 12:13:30 10° 35° (NE) 2,537 ? 50.5°
Sets 12:16:55 0° 55° (NE) 3,449 ? 50.6°
